Waarnemingen

Advertentie
Mijn weer
Greifswalder Oie, Duitsland (10097): temperatuur & dauwpunt: 13.06.2018 02:00:00 - 19.06.2018 02:00:00 (CEST)Greifswalder Oie, Duitsland (10097): temperatuur 5cm & temperatuur -5cm: 13.06.2018 02:00:00 - 19.06.2018 02:00:00 (CEST)Greifswalder Oie, Duitsland (10097): temperatuur -20cm & temperatuur -100cm: 13.06.2018 02:00:00 - 19.06.2018 02:00:00 (CEST)Greifswalder Oie, Duitsland (10097): water temperatuur: 13.06.2018 02:00:00 - 19.06.2018 02:00:00 (CEST)Greifswalder Oie, Duitsland (10097): windsnelheid & windstoten: 13.06.2018 02:00:00 - 19.06.2018 02:00:00 (CEST)Greifswalder Oie, Duitsland (10097): windrichting: 13.06.2018 02:00:00 - 19.06.2018 02:00:00 (CEST)Greifswalder Oie, Duitsland (10097): luchtdruk: 13.06.2018 02:00:00 - 19.06.2018 02:00:00 (CEST)Greifswalder Oie, Duitsland (10097): zicht: 13.06.2018 02:00:00 - 19.06.2018 02:00:00 (CEST)Greifswalder Oie, Duitsland (10097): Zonneschijnduur: 13.06.2018 02:00:00 - 19.06.2018 02:00:00 (CEST)Greifswalder Oie, Duitsland (10097): neerslag: 13.06.2018 02:00:00 - 19.06.2018 02:00:00 (CEST)
Datum & Tijd tt [°C] td [°C] tt 5cm [°C] tt -5cm [°C] tt -20cm [°C] tt -100cm [°C] tw [°C] ff [km/u] ff [kn] fx [km/u] fx [kn] dd ppp [hPa] vv [km] sd [min] rr [mm]
19.06.2018 02:00:00 - - - - - - - - - - - - - - - -
19.06.2018 01:00:00 18,8 14,7 18,3 19,8 21,1 16,7 19,6 21 12 25 13 ZZW 1016,7 24 0 0,0
19.06.2018 00:00:00 18,2 14,8 15,8 20,2 21,4 16,7 19,4 8 5 15 8 Z 1017,1 21 0 0,0
18.06.2018 23:00:00 17,3 14,7 12,8 21,0 21,6 16,7 19,5 3 2 8 4 N 1017,6 18 0 0,0
18.06.2018 22:00:00 17,9 14,8 16,5 21,8 21,8 16,7 19,6 6 3 9 5 NNW 1017,5 22 0 0,0
18.06.2018 21:00:00 19,3 15,7 19,2 22,5 21,9 16,7 19,9 6 3 17 9 WNW 1017,1 22 0 0,0
18.06.2018 20:00:00 20,0 15,1 20,2 23,2 22,0 16,7 20,1 12 6 19 11 ZW 1017,1 25 0 0,0
18.06.2018 19:00:00 19,8 13,9 20,4 24,0 22,0 16,6 20,1 8 4 15 8 Z 1017,2 23 0 0,0
18.06.2018 18:00:00 19,1 13,9 21,0 25,4 21,7 16,6 20,4 11 6 16 8 ZO 1017,6 18 9 0,0
18.06.2018 17:00:00 19,2 13,2 23,2 26,2 21,4 16,6 20,2 11 6 18 10 ZO 1017,9 14 34 0,0
18.06.2018 16:00:00 19,5 12,6 22,9 24,5 21,1 16,6 19,9 10 6 16 9 OZO 1018,0 21 25 0,0
18.06.2018 15:00:00 19,6 12,0 24,7 22,8 21,0 16,6 19,7 11 6 16 9 ZO 1018,4 13 24 0,0
18.06.2018 14:00:00 18,1 11,3 19,4 21,9 21,0 16,6 19,4 8 4 16 9 ZZO 1018,7 20 0 0,0
18.06.2018 13:00:00 17,9 10,4 18,0 22,6 20,8 16,6 19,3 4 2 14 7 ZZO 1018,9 25 0 0,0
18.06.2018 12:00:00 18,7 10,2 20,5 24,1 20,4 16,6 19,3 10 5 16 8 WNW 1018,9 24 31 0,0
18.06.2018 11:00:00 18,0 10,7 20,4 23,2 20,0 16,6 19,2 12 7 20 11 W 1018,8 19 59 0,0
18.06.2018 10:00:00 18,2 11,2 21,7 21,0 19,8 16,6 18,9 16 9 26 14 W 1018,7 9 60 0,0
18.06.2018 09:00:00 17,1 11,5 17,9 20,0 19,7 16,6 18,6 20 11 25 13 W 1018,4 18 19 0,0
18.06.2018 08:00:00 17,7 12,0 19,4 19,2 19,8 16,6 18,6 18 10 23 13 WZW 1018,5 16 14 0,0
18.06.2018 07:00:00 17,0 12,9 17,2 18,5 19,9 16,6 18,5 17 9 21 12 WZW 1018,3 19 4 0,0
18.06.2018 06:00:00 16,5 12,6 15,7 18,4 20,1 16,6 18,5 18 10 23 12 WZW 1017,8 17 0 0,0
18.06.2018 05:00:00 16,8 13,2 16,0 18,6 20,3 16,6 18,6 17 9 23 12 WZW 1017,8 19 0 0,0
18.06.2018 04:00:00 17,2 12,3 16,4 18,8 20,6 16,6 18,7 17 9 22 12 W 1017,8 22 0 0,0
18.06.2018 03:00:00 17,5 12,0 17,1 19,1 20,8 16,6 18,8 18 10 23 12 W 1017,7 25 0 0,0
18.06.2018 02:00:00 17,4 11,4 17,1 19,3 21,1 16,6 18,9 18 10 25 13 WNW 1017,6 28 0 0,0
18.06.2018 01:00:00 17,8 11,2 17,1 19,6 21,4 16,6 19,0 17 9 25 13 W 1017,3 28 0 0,0
18.06.2018 00:00:00 17,6 11,0 17,2 20,1 21,8 16,6 18,9 18 10 24 13 WNW 1016,9 30 0 0,0
17.06.2018 23:00:00 17,2 11,2 16,8 20,7 22,1 16,6 18,9 18 10 22 12 WNW 1016,7 27 0 0,0
17.06.2018 22:00:00 17,3 12,8 16,9 21,7 22,4 16,6 19,0 15 8 35 19 NW 1016,6 24 0 0,0
17.06.2018 21:00:00 18,3 13,6 18,3 22,9 22,6 16,6 19,2 33 18 39 21 NW 1016,2 20 0 0,0
17.06.2018 20:00:00 19,7 14,4 20,0 24,5 22,7 16,6 19,2 19 10 30 16 NW 1015,5 24 40 0,0
17.06.2018 19:00:00 21,2 13,8 22,4 26,0 22,5 16,6 19,1 21 11 25 14 NW 1014,8 23 55 0,0
17.06.2018 18:00:00 20,7 13,3 22,9 27,6 22,2 16,5 19,2 4 2 16 9 N 1014,6 21 60 0,0
17.06.2018 17:00:00 21,6 15,1 26,2 27,4 21,7 16,5 19,0 13 7 19 10 N 1014,7 17 53 0,0
17.06.2018 16:00:00 20,8 15,3 23,0 26,1 21,3 16,5 19,0 8 5 11 6 N 1014,3 12 34 0,0
17.06.2018 15:00:00 20,6 14,7 23,7 24,3 21,0 16,5 18,9 10 5 22 12 WNW 1014,2 12 31 0,0
17.06.2018 14:00:00 19,0 15,1 20,4 23,4 20,8 16,5 18,7 14 8 19 10 W 1014,1 14 16 0,0
17.06.2018 13:00:00 19,4 15,2 23,3 23,9 20,5 16,5 18,7 12 7 23 12 W 1013,8 11 49 0,0
17.06.2018 12:00:00 18,1 15,1 20,1 22,6 20,2 16,5 18,4 21 12 25 14 W 1014,0 11 31 0,0
17.06.2018 11:00:00 19,4 15,6 22,6 20,9 20,1 16,5 18,2 9 5 22 12 NNW 1013,7 16 15 1,8
17.06.2018 10:00:00 18,3 14,7 19,0 21,1 20,0 16,5 18,2 23 12 32 17 NNW 1013,4 19 7 0,0
17.06.2018 09:00:00 19,7 15,7 22,4 20,6 19,9 16,5 18,2 22 12 35 19 NNW 1013,1 14 8 0,0
17.06.2018 08:00:00 19,2 14,1 20,4 19,7 19,9 16,5 18,1 26 14 34 19 WZW 1012,9 15 46 0,0
17.06.2018 07:00:00 18,8 14,9 19,9 19,0 20,0 16,5 18,0 14 8 23 12 Z 1012,3 15 44 0,0
17.06.2018 06:00:00 18,8 15,4 19,5 18,7 20,2 16,5 18,0 9 5 20 11 Z 1012,3 15 15 0,0
17.06.2018 05:00:00 18,5 15,1 16,8 18,9 20,3 16,5 18,1 8 5 16 9 Z 1012,3 14 0 0,0
17.06.2018 04:00:00 18,4 15,9 17,8 19,0 20,5 16,5 18,2 14 7 20 11 ZO 1012,5 14 0 0,0
17.06.2018 03:00:00 18,2 15,0 16,7 19,1 20,8 16,4 18,2 16 8 25 14 ZO 1013,0 17 0 0,0
17.06.2018 02:00:00 18,0 14,4 16,8 19,4 21,0 16,4 18,2 16 9 29 16 ZO 1013,2 20 0 0,0
17.06.2018 01:00:00 18,2 13,9 17,3 19,7 21,3 16,4 18,3 22 12 34 18 OZO 1013,5 20 0 0,0
17.06.2018 00:00:00 18,4 13,2 17,4 20,1 21,6 16,4 18,3 25 14 37 20 OZO 1014,0 23 0 0,0
16.06.2018 23:00:00 17,8 13,4 17,0 20,7 21,9 16,4 18,3 24 13 41 22 OZO 1014,2 22 0 0,0
16.06.2018 22:00:00 18,1 12,7 17,7 21,3 22,1 16,4 18,4 28 15 44 24 O 1014,2 24 0 0,0
16.06.2018 21:00:00 17,9 13,4 17,5 22,0 22,4 16,4 18,4 29 16 42 23 O 1014,3 26 0 0,0
16.06.2018 20:00:00 18,1 13,2 18,0 23,0 22,6 16,4 18,6 28 15 41 22 O 1014,6 23 12 0,0
16.06.2018 19:00:00 18,5 12,6 19,1 23,8 22,7 16,4 18,7 31 17 42 23 O 1014,8 15 4 0,0
16.06.2018 18:00:00 18,6 13,6 20,0 24,8 22,8 16,4 18,8 30 16 40 22 O 1015,2 15 3 0,0
16.06.2018 17:00:00 18,7 13,1 20,3 26,0 22,7 16,4 18,8 26 14 38 20 O 1015,8 25 7 0,0
16.06.2018 16:00:00 18,7 12,7 20,4 27,2 22,4 16,4 18,8 24 13 35 19 O 1016,1 16 15 0,0
16.06.2018 15:00:00 19,9 12,8 23,3 28,4 21,9 16,4 18,8 21 11 31 17 O 1016,5 7 60 0,0
16.06.2018 14:00:00 19,7 11,7 23,4 27,5 21,4 16,4 19,0 21 12 29 16 O 1017,0 14 60 0,0
16.06.2018 13:00:00 19,3 12,0 23,4 26,5 20,8 16,4 18,9 21 11 29 15 O 1017,8 9 60 0,0
16.06.2018 12:00:00 19,4 11,6 23,6 25,1 20,2 16,3 19,0 19 11 28 15 O 1018,1 8 60 0,0
16.06.2018 11:00:00 19,1 12,0 23,2 23,3 19,8 16,3 19,5 16 9 27 14 OZO 1018,1 12 60 0,0
16.06.2018 10:00:00 18,7 12,6 22,0 21,4 19,6 16,3 19,0 16 9 23 13 O 1018,1 18 40 0,0
16.06.2018 09:00:00 17,5 11,4 19,2 19,9 19,5 16,3 18,7 16 9 21 11 O 1018,1 16 51 0,0
16.06.2018 08:00:00 17,6 11,4 19,7 18,6 19,5 16,3 18,7 14 8 20 11 O 1017,9 18 60 0,0
16.06.2018 07:00:00 17,5 10,7 18,8 17,7 19,7 16,3 18,7 11 6 18 10 O 1017,9 16 56 0,0
16.06.2018 06:00:00 16,5 11,1 15,7 17,3 20,0 16,3 18,8 8 5 11 6 O 1017,9 26 22 0,0
16.06.2018 05:00:00 15,6 9,9 10,3 17,7 20,3 16,3 18,9 5 3 7 4 ONO 1018,0 26 0 0,0
16.06.2018 04:00:00 16,2 10,6 11,0 17,6 20,7 16,3 19,0 4 2 6 3 ZO 1017,9 27 0 0,0
16.06.2018 03:00:00 15,9 10,5 9,0 17,8 21,1 16,3 19,1 5 3 11 6 ZZO 1018,0 27 0 0,0
16.06.2018 02:00:00 16,0 10,6 7,4 18,5 21,5 16,2 19,1 6 3 10 6 ZZO 1018,0 25 0 0,0
16.06.2018 01:00:00 16,5 11,1 12,9 19,2 22,0 16,2 19,2 8 4 11 6 ZZO 1017,7 24 0 0,0
16.06.2018 00:00:00 16,0 10,7 8,8 19,9 22,5 16,2 19,3 5 3 8 4 Z 1018,1 30 0 0,0
15.06.2018 23:00:00 15,7 10,4 8,0 21,1 23,0 16,2 19,4 5 3 9 5 ZZO 1018,0 31 0 0,0
15.06.2018 22:00:00 16,0 10,8 11,2 22,7 23,4 16,2 19,5 6 3 10 5 ZZO 1018,0 31 0 0,0
15.06.2018 21:00:00 16,2 11,2 14,5 24,7 23,7 16,2 19,7 6 3 12 7 OZO 1017,7 30 60 0,0
15.06.2018 20:00:00 17,3 11,4 19,7 26,6 23,8 16,2 19,2 7 4 14 8 OZO 1017,7 27 60 0,0
15.06.2018 19:00:00 17,9 11,1 20,6 28,1 23,7 16,2 19,2 10 5 18 10 ONO 1017,6 21 60 0,0
15.06.2018 18:00:00 18,5 11,4 22,2 29,3 23,4 16,2 19,4 11 6 22 12 NO 1017,6 24 60 0,0
15.06.2018 17:00:00 18,3 11,4 22,7 30,0 23,0 16,2 19,3 16 8 22 12 NNO 1017,5 24 60 0,0
15.06.2018 16:00:00 19,0 12,4 23,4 30,2 22,4 16,2 19,0 13 7 22 12 NO 1017,4 15 60 0,0
15.06.2018 15:00:00 19,5 12,4 24,7 30,0 21,7 16,2 19,1 15 8 24 13 NNO 1017,3 19 60 0,0
15.06.2018 14:00:00 20,3 10,6 25,3 28,7 20,9 16,2 18,9 10 6 19 10 N 1017,3 29 60 0,0
15.06.2018 13:00:00 20,4 11,5 25,1 26,6 20,3 16,2 18,8 15 8 22 12 N 1017,1 22 60 0,0
15.06.2018 12:00:00 18,7 12,0 22,0 24,1 19,8 16,2 18,4 18 10 27 14 WNW 1016,8 18 58 0,0
15.06.2018 11:00:00 18,2 13,1 21,3 22,3 19,5 16,2 18,3 16 9 22 12 W 1016,5 14 54 0,0
15.06.2018 10:00:00 17,2 13,2 19,6 20,2 19,5 16,2 18,0 18 10 29 16 WNW 1016,3 12 44 0,0
15.06.2018 09:00:00 16,7 13,7 18,2 19,7 19,5 16,2 17,9 22 12 27 15 W 1015,9 9 3 0,0
15.06.2018 08:00:00 16,8 14,1 17,7 18,9 19,5 16,2 17,8 22 12 26 14 W 1015,2 10 0 0,1
15.06.2018 07:00:00 16,3 13,6 16,5 18,7 19,7 16,2 17,8 22 12 26 14 WNW 1014,7 11 0 0,0
15.06.2018 06:00:00 16,4 13,3 16,5 18,8 19,9 16,2 17,8 26 14 34 18 WNW 1014,6 9 0 0,0
15.06.2018 05:00:00 17,0 13,0 16,7 18,9 20,1 16,2 18,0 22 12 34 18 W 1014,2 10 0 0,0
15.06.2018 04:00:00 17,2 12,8 17,0 19,1 20,3 16,2 18,0 24 13 31 17 W 1014,1 13 0 0,1
15.06.2018 03:00:00 17,4 13,0 17,2 19,4 20,5 16,2 18,1 18 10 29 16 W 1014,0 13 0 0,0
15.06.2018 02:00:00 17,5 12,2 17,2 19,7 20,8 16,2 18,2 25 14 35 19 W 1013,9 25 0 0,0
15.06.2018 01:00:00 17,9 13,5 17,4 20,1 21,1 16,2 18,6 18 10 24 13 ZZW 1013,4 32 0 0,0
15.06.2018 00:00:00 17,8 12,5 16,9 20,5 21,4 16,2 18,7 11 6 23 12 Z 1013,5 31 0 0,0
14.06.2018 23:00:00 18,1 12,7 17,2 21,1 21,7 16,2 18,7 11 6 20 11 Z 1013,6 31 0 0,0
14.06.2018 22:00:00 18,4 12,5 17,6 22,1 22,0 16,2 18,8 16 8 23 12 ZZW 1013,7 30 0 0,0
14.06.2018 21:00:00 18,7 11,3 17,8 23,6 22,2 16,2 18,8 17 9 22 12 ZZW 1013,2 32 45 0,0
14.06.2018 20:00:00 17,9 12,9 20,0 25,4 22,2 16,2 19,2 14 8 19 11 OZO 1013,1 33 60 0,0
14.06.2018 19:00:00 18,3 11,8 21,3 26,6 22,0 16,3 19,2 10 6 21 11 ZO 1013,0 26 57 0,0
14.06.2018 18:00:00 18,3 10,9 22,3 27,8 21,7 16,3 18,6 15 8 21 11 OZO 1013,2 18 60 0,0
14.06.2018 17:00:00 18,3 10,1 23,9 28,8 21,1 16,3 18,5 12 7 20 11 ZO 1013,5 15 60 0,0
14.06.2018 16:00:00 18,4 9,4 24,5 28,6 20,5 16,3 18,4 10 6 19 10 ZO 1014,0 20 60 0,0
14.06.2018 15:00:00 17,9 7,8 24,4 27,8 19,7 16,3 19,8 10 5 20 11 ZO 1014,5 16 60 0,0
14.06.2018 14:00:00 18,1 7,8 22,9 26,4 18,9 16,3 18,7 10 5 16 8 ZW 1014,7 22 60 0,0
14.06.2018 13:00:00 18,5 8,2 24,4 24,2 18,3 16,3 18,2 9 5 21 11 WZW 1015,0 17 55 0,0
14.06.2018 12:00:00 17,1 7,4 22,2 22,3 17,7 16,3 17,5 13 7 23 12 ZW 1015,1 33 58 0,0
14.06.2018 11:00:00 16,8 7,6 20,2 19,0 17,5 16,3 16,9 18 10 32 17 WZW 1015,0 26 6 0,0
14.06.2018 10:00:00 15,0 8,8 16,5 17,5 17,4 16,3 16,8 24 13 33 18 W 1015,0 37 0 0,0
14.06.2018 09:00:00 14,9 9,5 16,0 17,0 17,4 16,3 16,8 25 13 35 19 W 1014,8 26 0 0,0
14.06.2018 08:00:00 14,8 10,2 15,2 16,4 17,4 16,3 16,8 27 15 36 20 W 1014,6 30 4 0,0
14.06.2018 07:00:00 14,9 10,0 15,2 16,0 17,5 16,4 16,9 29 16 34 19 W 1014,3 31 10 0,0
14.06.2018 06:00:00 14,6 9,9 14,1 15,7 17,7 16,4 16,9 24 13 35 19 WNW 1014,3 40 21 0,0
14.06.2018 05:00:00 14,5 9,9 14,0 15,8 17,9 16,4 16,9 28 15 39 21 WNW 1013,9 35 0 0,0
14.06.2018 04:00:00 14,5 10,2 14,0 16,2 18,0 16,4 17,0 32 18 42 23 WNW 1013,6 38 0 0,0
14.06.2018 03:00:00 15,0 10,6 14,5 16,3 18,2 16,4 17,1 33 18 40 22 WNW 1013,1 36 0 0,0
14.06.2018 02:00:00 15,0 10,8 14,6 16,7 18,4 16,4 17,2 34 19 43 23 WNW 1012,7 37 0 0,0
14.06.2018 01:00:00 15,4 10,9 15,0 17,1 18,6 16,4 17,3 39 21 53 29 WNW 1012,8 34 0 0,0
14.06.2018 00:00:00 15,6 11,4 15,3 17,3 18,8 16,4 17,4 48 26 58 31 W 1012,7 28 0 0,0
13.06.2018 23:00:00 15,8 11,3 15,5 17,7 19,0 16,4 17,5 47 26 56 31 W 1012,2 30 0 0,0
13.06.2018 22:00:00 16,3 11,4 16,0 18,3 19,1 16,4 17,6 45 24 54 29 W 1011,7 34 0 0,0
13.06.2018 21:00:00 16,9 11,0 16,9 18,7 19,3 16,4 17,6 40 22 46 25 W 1011,0 36 0 0,1
13.06.2018 20:00:00 16,9 11,4 17,1 19,1 19,4 16,5 17,7 34 19 42 23 W 1010,8 32 0 0,0
13.06.2018 19:00:00 16,9 11,1 17,0 19,6 19,5 16,5 17,9 32 18 39 21 W 1010,8 37 0 0,0
13.06.2018 18:00:00 16,6 11,1 16,8 20,2 19,5 16,5 17,9 26 14 34 18 W 1010,4 33 0 0,0
13.06.2018 17:00:00 16,4 11,6 17,2 21,9 19,2 16,5 18,0 29 16 41 22 W 1010,4 31 23 0,0
13.06.2018 16:00:00 17,0 11,9 19,4 21,9 19,0 16,5 17,9 36 19 42 23 WNW 1010,0 16 41 0,0
13.06.2018 15:00:00 16,3 11,6 18,1 20,9 18,7 16,5 18,2 32 18 38 21 W 1009,9 23 1 0,0
13.06.2018 14:00:00 16,1 12,6 18,2 21,1 18,4 16,5 18,1 31 17 38 20 W 1009,8 20 7 0,0
13.06.2018 13:00:00 16,5 12,6 19,1 20,0 18,2 16,5 17,8 22 12 35 19 W 1009,8 18 0 0,0
13.06.2018 12:00:00 15,5 12,4 17,4 18,9 18,0 16,5 17,6 32 17 39 21 W 1009,5 16 0 0,0
13.06.2018 11:00:00 15,4 12,8 17,3 18,3 18,0 16,5 17,4 29 15 36 19 WZW 1009,4 17 0 0,0
13.06.2018 10:00:00 14,8 12,7 15,9 17,4 18,0 16,5 17,2 29 16 39 21 W 1009,4 17 0 0,0
13.06.2018 09:00:00 14,6 13,0 15,3 16,9 18,0 16,5 17,2 34 18 41 22 WZW 1009,2 14 0 0,0
13.06.2018 08:00:00 14,4 12,7 14,5 16,7 18,1 16,6 17,2 32 18 39 21 W 1009,1 22 0 0,0
13.06.2018 07:00:00 14,7 12,8 14,6 16,7 18,2 16,6 17,2 33 18 39 21 W 1008,8 16 0 0,0
13.06.2018 06:00:00 14,6 12,4 14,6 16,8 18,4 16,6 17,3 33 18 41 22 W 1008,6 28 0 0,0
13.06.2018 05:00:00 14,4 12,7 14,4 16,8 18,5 16,6 17,4 35 19 44 24 W 1008,4 23 0 0,1
13.06.2018 04:00:00 14,9 12,5 14,8 17,0 18,7 16,6 17,5 34 18 42 23 W 1008,7 24 0 0,0
13.06.2018 03:00:00 15,4 12,6 14,8 17,3 18,8 16,6 17,6 35 19 43 23 W 1008,8 34 0 0,0
13.06.2018 02:00:00 15,8 12,3 15,7 17,5 18,9 16,6 17,9 27 15 35 19 W 1009,1 32 0 0,0

tt = temperatuur
td = dauwpunt
tt 5cm = temperatuur 5cm
tt -5cm = temperatuur -5cm
tt -20cm = temperatuur -20cm
tt -100cm = temperatuur -100cm
tw = water temperatuur
ff = windsnelheid
fx = windstoten
dd = windrichting
ppp = luchtdruk
vv = zicht
sd = Zonneschijnduur
rr = neerslag

Weerstations in de omgeving